This is the latest recevied weather packets stored in our database for station/object KA6AKH-13. If no packets are shown the sender has not sent any weather packets the latest 10 day(s).
| Time | Temp. | Humidity | Pressure | Rain* | Wind** | Luminosity | Snow |
|---|---|---|---|---|---|---|---|
| 1777670741 | 19.44° C | 41% | 1010.3 hPa | 0 mm | - | - | - |
| 1777670111 | 19.44° C | 41% | 1010.2 hPa | 0 mm | - | - | - |
| 1777664474 | 20° C | 34% | 1011.6 hPa | 0 mm | - | - | - |
| 1777663875 | 20° C | 37% | 1011.7 hPa | 0 mm | - | - | - |
| 1777663408 | 20.56° C | 32% | 1011.9 hPa | 0 mm | - | - | - |
| 1777663274 | 20.56° C | 32% | 1011.9 hPa | 0 mm | - | - | - |
| 1777662674 | 20.56° C | 31% | 1012 hPa | 0 mm | - | - | - |
| 1777662233 | 20.56° C | 32% | 1012.2 hPa | 0 mm | - | - | - |
| 1777662044 | 20.56° C | 32% | 1012.2 hPa | 0 mm | - | - | - |
| 1777661414 | 20.56° C | 35% | 1012.3 hPa | 0 mm | - | - | - |
| 1777660814 | 20° C | 36% | 1012.4 hPa | 0 mm | - | - | - |
| 1777660184 | 20° C | 37% | 1012.7 hPa | 0 mm | - | - | - |
| 1777659741 | 20° C | 37% | 1012.7 hPa | 0 mm | - | - | - |
| 1777659584 | 20° C | 37% | 1012.7 hPa | 0 mm | - | - | - |
| 1777658984 | 19.44° C | 40% | 1012.9 hPa | 0 mm | - | - | - |
| 1777658384 | 19.44° C | 35% | 1012.9 hPa | 0 mm | - | - | - |
| 1777657756 | 19.44° C | 40% | 1013 hPa | 0 mm | - | - | - |
| 1777657126 | 18.89° C | 39% | 1013.1 hPa | 0 mm | - | - | - |
| 1777656494 | 18.89° C | 43% | 1013.2 hPa | 0 mm | - | - | - |
| 1777655864 | 18.89° C | 43% | 1013.3 hPa | 0 mm | - | - | - |
| 1777655264 | 18.33° C | 44% | 1013.5 hPa | 0 mm | - | - | - |
| 1777654664 | 17.78° C | 44% | 1013.6 hPa | 0 mm | - | - | - |
| 1777654034 | 17.78° C | 47% | 1013.7 hPa | 0 mm | - | - | - |
| 1777652903 | 17.22° C | 48% | 1013.8 hPa | 0 mm | - | - | - |
| 1777652804 | 17.22° C | 48% | 1013.8 hPa | 0 mm | - | - | - |
* Rain latest hour (hover to see other rain measurements)
** Current wind speed in m/s (hover to see current wind gust speed)